THOR ABLESTAR R/B, 118

Orbit data source: Space-Track

THOR ABLESTAR R/B, 118 is space debris in LEO originally from a launch on Thu, 29 Jun 1961 UTC launched from the Air Force Eastern Test Range (AFETR). Debris objects in space refer to the collection of defunct objects orbiting the Earth. Examples of debris include non-operational satellites, rocket bodies, and fragments generated from explosions, collisions, or faulty payload assembly.

Loading next visibility...
Identifier
118, 1961-015C
Orbit
LEO
Country
Flag of USUS
Related business
Manufacturer
Aerojet
Mission
Spacecraft
Bus & Motor
ABLESTAR, Unknown motor
Mass
~600 kg wet, 600 kg dry
Launch date (UTC)
1961-06-29 (64 years ago)
Launch vehicle
Unknown
Launch site
Air Force Eastern Test Range (AFETR)
Object type
Payload
Rocket body
Debris
Shape & HBR
Unknown
Radar Cross Section
Large (>1 m²)

Expand to show TLE details & history
Last TLE update: 16 hours ago

TLE from 16 hours ago
0 THOR ABLESTAR R/B
1 00118U 61015C   25294.42389626  .00000228  00000-0  19397-3 0  9999
2 00118  66.7629 296.1016 0074956  79.3472 281.6042 14.02622824282653
Epoch: 2025-10-21T10:10Z
TLE epoch observation values (Epoch: 2025-10-21T10:10:24.636Z)
Latitude
-0.00009°
Longitude
113.38685°
Altitude
876.253 km
Speed
7.42 km/s
True Right ascension
19h 44m 24s
True Declination
0° 00' 00"
Sunlit
Object was in daylight at epoch
Visualization orbit readout
Latitude
Unknown
Longitude
Unknown
Altitude
Unknown
Speed
Unknown
Apparent Right ascension
Unknown
Apparent Declination
Unknown
Sunlit
N/A
Visualization observer readout
Local Sidereal Time
21:06:58
Azimuth
Unknown
Elevation
Unknown
Doppler factor
Unknown
Orbital elements
Apogee altitude
937.543 km
Perigee altitude
828.688 km
Semi-major axis
7,261.252 km
Eccentricity
0.0075
Inclination
66.7629°
RAAN
296.1016°
Arg. of periapsis
79.3472°
True anomaly
280.76127°
Mean anomaly
281.6042°
Eccentric anomaly
281.18289°
Mean motion
3.50773 °/min
Orbital period
102.63 mins
BSTAR
0.00019397

Documentation

Showing up to 5 results
|